Regional Weather Roundup
Issued by NWS

Home | Current Version | Previous Version | Text Only | Print | Product List | Glossary On
Versions: 1 2 3 4 5 6 7 8 9 10 11 12 13 14 15 16 17 18 19 20 21 22 23 24 25 26 27 28 29 30 31 32 33 34 35 36 37 38 39 40 41 42 43 44 45 46 47 48 49 50
410
ASUS43 KDMX 252003
RWRIA

WEATHER ROUNDUP FOR IOWA
NATIONAL WEATHER SERVICE DES MOINES IA
300 PM CDT THU AUG 25 2016

NOTE: "FAIR" INDICATES FEW OR NO CLOUDS BELOW 12,000 FEET WITH NO
SIGNIFICANT WEATHER AND/OR OBSTRUCTIONS TO VISIBILITY.

* - THESE STATIONS ARE NOT NWS STATIONS...THUS NOT UNDER NWS
QUALITY CONTROL.  THEY ALSO DO NOT REPORT WEATHER SUCH
AS PRECIPITATION OR FOG.

IAZ001>003-012>014-020>022-031>034-043>046-252100-
   NORTHWEST IOWA

CITY           SKY/WX    TMP DP  RH WIND       PRES   REMARKS
CARROLL *      PTSUNNY   75  57  53 CALM      30.12F
CHEROKEE *     PTSUNNY   74  57  56 NW6       30.14S
DENISON *      CLOUDY    75  63  64 N5        30.12S
LE MARS *      MOSUNNY   73  57  56 W9        30.16S
ORANGE CITY *  MOSUNNY   72  59  64 NW8       30.15S
SHELDON *      MOSUNNY   72  57  60 W8        30.13F
SIOUX CITY     MOSUNNY   73  56  54 NW12      30.14F
SPENCER        MOSUNNY   74  56  53 W10       30.13F
STORM LAKE *     N/A     73  59  60 NW8       30.14F
$$

IAZ055>058-069>071-079>083-090>094-252100-
   SOUTHWEST IOWA

CITY           SKY/WX    TMP DP  RH WIND       PRES   REMARKS
ATLANTIC *     MOSUNNY   73  61  64 NE5       30.13S
AUDUBON *      CLOUDY    75  63  64 N3        30.14F
CLARINDA *       N/A     73  63  68 MISG      30.15S
COUNCIL BLFS * PTSUNNY   73  64  73 N7        30.13F
CRESTON *      CLOUDY    70  63  78 CALM      30.14F
HARLAN  *      CLOUDY    75  61  60 N7        30.16F
LAMONI         PTSUNNY   75  63  66 VRB3      30.11S
RED OAK *      PTSUNNY   72  63  73 CALM      30.13S
SHENANDOAH *   CLOUDY    73 -35   1 CALM      30.14S
$$

IAZ047>049-059>061-072>074-084-252100-
   CENTRAL IOWA

CITY           SKY/WX    TMP DP  RH WIND       PRES   REMARKS
AMES           MOSUNNY   75  62  64 NW3       30.11S
ANKENY *         N/A    N/A N/A N/A MISG        N/A
BOONE *        CLOUDY    73  61  64 CALM      30.11F
CHARITON *       N/A     72  63  73 MISG      30.11R
DES MOINES     CLOUDY    74  61  63 CALM      30.11R
GRINNELL*      CLOUDY    73  60  65 CALM      30.11R
KNOXVILLE *    CLOUDY    73  63  68 NW3       30.09S
MARSHALLTOWN   CLOUDY    73  63  70 NW3       30.11R
NEWTON *       CLOUDY    72  66  83 CALM      30.11R
PERRY *          N/A     74  63  69 CALM      30.13S
$$

IAZ004>006-015-016-023>025-035-036-252100-
   NORTH CENTRAL IOWA

CITY           SKY/WX    TMP DP  RH WIND       PRES   REMARKS
ALGONA *       CLOUDY    73  59  60 W7        30.12S
ESTHERVILLE    PTSUNNY   72  59  63 W8        30.12F
FORT DODGE *   PTSUNNY   75  63  64 SW6       30.13S
MASON CITY     MOSUNNY   74  58  57 W9        30.12S
FOREST CITY *    N/A    N/A N/A N/A MISG        N/A
WEBSTER CITY * PTSUNNY   75  64  69 W5        30.10S
IOWA FALLS *     N/A     76  61  59 W6        30.12S
$$

IAZ007>011-017>019-026>030-037>042-050>054-066-252100-
   NORTHEAST IOWA

CITY           SKY/WX    TMP DP  RH WIND       PRES   REMARKS
CEDAR RAPIDS   MOSUNNY   76  65  68 CALM      30.06F
CHARLES CITY * CLOUDY    75  63  64 VRB6      30.10S
CLINTON *      CLOUDY    76  66  71 W3        30.07
DECORAH *      CLOUDY    73  63  68 VRB5      30.07F
DUBUQUE        PTSUNNY   78  62  57 NW5       30.08F HX  80
MONTICELLO *   CLOUDY    77  63  61 N6        30.07F
OELWEIN *      CLOUDY    75  63  64 NW8       30.10S
WATERLOO       PTSUNNY   77  58  51 SW6       30.09R
$$

IAZ064-065-067-068-078-252100-
   EAST CENTRAL IOWA

CITY           SKY/WX    TMP DP  RH WIND       PRES   REMARKS
DAVENPORT      CLOUDY    75  65  70 W3        30.07F
IOWA CITY      CLOUDY    76  64  66 NW3       30.07F
MT. PLEASANT * CLOUDY    78  65  64 CALM      30.07F HX  80
MUSCATINE *    CLOUDY    75  66  73 W6        30.07S
$$

IAZ062-063-075>077-085>089-095>099-252100-
   SOUTHEAST IOWA

CITY           SKY/WX    TMP DP  RH WIND       PRES   REMARKS
BURLINGTON     CLOUDY    76  68  76 W5        30.07S
FAIRFIELD *    CLOUDY    75  59  57 CALM      30.07F
FORT MADISON * CLOUDY    75  66  73 CALM      30.07F
KEOKUK *       LGT RAIN  75  72  88 VRB5      30.05F
OSKALOOSA *      N/A     73  64  72 CALM      30.09S
OTTUMWA        SUNNY     77  62  59 VRB3      30.08S
WASHINGTON *   CLOUDY    75  68  78 CALM      30.08S
$$

ABBREVIATIONS USED IN REMARKS
   TC - TEMPERATURES IN CELSIUS
  WCI - WIND CHILL INDEX
   HX - HEAT INDEX
  VSB - VISIBILITY
$$





USA.gov is the U.S. government's official web portal to all federal, state and local government web resources and services.